Location: Brunsen
(51.8651°N, 9.8610°E)
Time: 16:01:51
(UTC+00:00)

SJ 16-02 - Pass Details

Date: 23 May 2024
Orbit: 594 x 606 km, 75.0° (Epoch: 24 June)

Event Time Altitude Azimuth Distance (km) Brightness Sun altitude
Exits shadow 01:40:40 11° 182° (S) 1,855 3.3 -11.0°
Maximum altitude 01:44:38 51° 107° (ESE) 757 1.9 -10.7°
Drops below altitude 10° 01:48:49 10° 32° (NNE) 1,940 5.5 -10.3°
Sets 01:51:06 0° 27° (NNE) 2,847 6.8 -10.1°
